Belgrade, MT

5:56 PM MDT on August 26, 2016 (GMT -0600)
Gallatin

Weather History for KBZN - November, 2013

Change the Weather History Date:

Monday, November 11, 2013

  Actual Average Record
Temperature  
Mean Temperature 36 °F 35 °F  
Max Temperature 47 °F 48 °F 70 °F (1990)
Min Temperature 25 °F 22 °F -20 °F (1940)
Degree Days  
Heating Degree Days 29 30  
Month to date heating degree days 318 305  
Since 1 July heating degree days 1316 1202  
Cooling Degree Days 0 0  
Month to date cooling degree days 0 0  
Year to date cooling degree days 284 368  
Moisture  
Dew Point 30 °F    
Average Humidity 76    
Maximum Humidity 92    
Minimum Humidity 60    
Precipitation  
Precipitation 0.00 in 0.02 in 0.33 in (1983)
Month to date precipitation 0.20 0.29  
Year to date precipitation 11.33 13.00  
Snow  
Snow 0.00 in 0.10 in 3.00 in (1959)
Month to date snowfall T 1.3  
Since 1 July snowfall T 3.5  
Since 1 September snowfall T 3.5  
Snow Depth 0.00 in    
Sea Level Pressure  
Sea Level Pressure 30.40 in    
Wind  
Wind Speed 2 mph (SW)    
Max Wind Speed 8 mph    
Max Gust Speed 9 mph    
Visibility 9 miles    
Events      
T = Trace of Precipitation, MM = Missing Value Source: NWS Daily Summary

Daily Weather History Graph

Daily Weather History Graph

Search for Another Location

Airport or City:

Trip Planner

Search our weather history database for the weather conditions in past years. The results will help you decide how hot, cold, wet, or windy it might be!

Date:

Astronomy

Nov. 11, 2013 Rise Set
Actual Time 7:19 AM MST 4:57 PM MST
Civil Twilight 6:47 AM MST 5:29 PM MST
Nautical Twilight 6:11 AM MST 6:05 PM MST
Astronomical Twilight 5:36 AM MST 6:40 PM MST
Moon 1:56 PM MST (11/11) 12:49 AM MST (11/11)
Length of Visible Light 10h 42m
Length of Day
9h 38m
Waxing Gibbous, 67% of the Moon is Illuminated
Nov 11
Waxing Gibbous
Nov 17
Full
Nov 25
Last Quarter
Dec 2
New
Dec 9
First Quarter

Hourly Weather History & Observations

Time (MST) Temp. Windchill Dew Point Humidity Pressure Visibility Wind Dir Wind Speed Gust Speed Precip Events Conditions
12:56 AM 39.0 °F 34.8 °F 32.0 °F 76% 30.19 in 10.0 mi WSW 5.8 mph - N/A   Mostly Cloudy
1:56 AM 36.0 °F - 30.9 °F 82% 30.22 in 10.0 mi Calm Calm - N/A   Clear
2:56 AM 35.1 °F - 30.0 °F 82% 30.24 in 10.0 mi Calm Calm - N/A   Partly Cloudy
3:56 AM 34.0 °F 28.0 °F 30.0 °F 85% 30.28 in 10.0 mi WNW 6.9 mph - N/A   Overcast
4:56 AM 32.0 °F 27.5 °F 28.9 °F 88% 30.31 in 10.0 mi SSE 4.6 mph - N/A   Mostly Cloudy
5:56 AM 32.0 °F 28.7 °F 28.9 °F 88% 30.34 in 9.0 mi SE 3.5 mph - N/A   Mostly Cloudy
6:56 AM 33.1 °F - 28.9 °F 85% 30.36 in 10.0 mi Calm Calm - N/A   Mostly Cloudy
7:56 AM 33.1 °F - 28.9 °F 85% 30.40 in 8.0 mi Calm Calm - N/A   Mostly Cloudy
8:56 AM 33.1 °F - 28.9 °F 85% 30.40 in 7.0 mi Calm Calm - N/A   Clear
9:56 AM 35.1 °F - 30.0 °F 82% 30.40 in 8.0 mi Calm Calm - N/A   Clear
10:56 AM 37.9 °F - 30.9 °F 76% 30.41 in 9.0 mi Calm Calm - N/A   Partly Cloudy
11:56 AM 41.0 °F - 30.9 °F 67% 30.40 in 10.0 mi Calm Calm - N/A   Clear
12:56 PM 46.0 °F - 33.1 °F 61% 30.39 in 10.0 mi Calm Calm - N/A   Clear
1:56 PM 46.0 °F - 34.0 °F 63% 30.41 in 10.0 mi Calm Calm - N/A   Partly Cloudy
2:56 PM 46.0 °F - 34.0 °F 63% 30.41 in 10.0 mi Calm Calm - N/A   Clear
3:56 PM 44.1 °F 42.5 °F 35.1 °F 71% 30.44 in 10.0 mi North 3.5 mph - N/A   Mostly Cloudy
4:56 PM 41.0 °F 39.0 °F 34.0 °F 76% 30.46 in 10.0 mi NNW 3.5 mph - N/A   Clear
5:56 PM 37.0 °F 34.5 °F 32.0 °F 82% 30.48 in 9.0 mi West 3.5 mph - N/A   Clear
6:56 PM 32.0 °F - 28.0 °F 85% 30.52 in 8.0 mi Calm Calm - N/A   Clear
7:56 PM 32.0 °F 25.6 °F 28.9 °F 88% 30.52 in 7.0 mi South 6.9 mph - N/A   Clear
8:56 PM 28.9 °F 23.9 °F 25.0 °F 85% 30.53 in 9.0 mi SSW 4.6 mph - N/A   Clear
9:56 PM 28.9 °F - 26.1 °F 89% 30.53 in 6.0 mi Calm Calm - N/A   Clear
10:56 PM 28.9 °F - 25.0 °F 85% 30.52 in 9.0 mi Calm Calm - N/A   Clear
11:56 PM 25.0 °F 18.1 °F 21.9 °F 88% 30.54 in 10.0 mi ESE 5.8 mph - N/A   Clear